Regional Weather Roundup
Issued by NWS

Home | Current Version | Previous Version | Text Only | Print | Product List | Glossary Off
Versions: 1 2 3 4 5 6 7 8 9 10 11 12 13 14 15 16 17 18 19 20 21 22 23 24 25 26 27 28 29 30 31 32 33 34 35 36 37 38 39 40 41 42 43 44 45 46 47 48 49 50

000
ASUS43 KOAX 240502
RWRNE

WEATHER ROUNDUP FOR NEBRASKA
NATIONAL WEATHER SERVICE OMAHA NE
1100 PM CST THU NOV 23 2017

NOTES: SATELLITE DATA IS BEING USED TO AUGMENT CLOUD COVER ABOVE
       12000 FEET.
       "FAIR" INDICATES FEW OR NO CLOUDS BELOW 12,000 FEET WITH NO
       SIGNIFICANT WEATHER AND/OR OBSTRUCTIONS TO VISIBILITY.


NEZ001>004-019>022-054>056-240600-
NEBRASKA PANHANDLE

CITY           SKY/WX    TMP DP  RH WIND       PRES   REMARKS
SCOTTSBLUFF    CLOUDY    50  35  56 CALM      29.80F
ALLIANCE       CLOUDY    41  35  79 W3        29.77F
CHADRON        PTCLDY    42  34  73 S3        29.72F
GORDON         FAIR      49  35  59 W7        29.72F
KIMBALL        CLOUDY    46  31  54 SW9       29.87F
SIDNEY         CLOUDY    49  31  49 W13       29.85F
$$

NEZ057>060-069>072-079>082-240600-
SOUTHWEST NEBRASKA

CITY           SKY/WX    TMP DP  RH WIND       PRES   REMARKS
NORTH PLATTE   CLOUDY    41  36  82 N3        29.76F
IMPERIAL       CLOUDY    47  31  53 W9        29.82F
LEXINGTON      CLOUDY    56  39  52 SW10      29.75F
MCCOOK         PTCLDY    53  38  56 W14       29.80F
OGALLALA       CLOUDY    40  32  74 SW9       29.79F WCI  33
$$

NEZ005>010-023>029-035>040-094-240600-
NORTH CENTRAL NEBRASKA

CITY           SKY/WX    TMP DP  RH WIND       PRES   REMARKS
VALENTINE      CLOUDY    48  37  65 SW7       29.65F
AINSWORTH      CLOUDY    51  39  63 SW12      29.67F
BROKEN BOW     CLEAR     47  38  71 W7        29.72F
O`NEILL        PTCLDY    49  42  77 SW7       29.66F
ORD            PTCLDY    52  41  66 SW6       29.70F
THEDFORD       CLOUDY    55  40  56 W15       29.72F
$$

NEZ041-046>049-061>064-073>077-083>087-240600-
SOUTH CENTRAL NEBRASKA

CITY           SKY/WX    TMP DP  RH WIND       PRES   REMARKS
GRAND ISLAND   CLOUDY    55  42  61 S10       29.74F
AURORA         CLOUDY    51  39  64 SW10      29.74F
HASTINGS       CLOUDY    56  40  55 SW10      29.75F
HEBRON         CLOUDY    56  40  54 S8        29.78F
HOLDREGE       CLOUDY    55  41  59 SW13      29.76F
KEARNEY        CLOUDY    52  40  63 SW12      29.74F
YORK           PTCLDY    50  39  66 S9        29.75F
$$

NEZ011>018-030>034-042>045-240600-
NORTHEAST NEBRASKA

CITY           SKY/WX    TMP DP  RH WIND       PRES   REMARKS
NORFOLK        CLOUDY    54  41  61 S15       29.68F
ALBION         MOCLDY    53  41  62 S3        29.71F
BLAIR          MOCLDY    54  41  60 S13       29.73F
COLUMBUS       CLOUDY    55  41  59 S14       29.72F
FREMONT        PTCLDY    58  40  51 S9G16     29.74F
TEKAMAH        CLOUDY    50  38  63 S9        29.72F
WAYNE          CLEAR     54  38  56 SW12      29.68F
$$

NEZ050>053-065>068-078-088>093-240600-
SOUTHEAST NEBRASKA

CITY           SKY/WX    TMP DP  RH WIND       PRES   REMARKS
LINCOLN        CLOUDY    51  39  63 S7        29.77F
OMAHA EPPLEY   MOCLDY    49  38  65 S10       29.75F
BEATRICE       PTCLDY    55  40  56 S10       29.78F
FALLS CITY     CLOUDY    55  38  52 S12       29.81F
NEBRASKA CITY  CLOUDY    53  40  60 S12       29.79F
PLATTSMOUTH    CLOUDY    52  40  62 S15       29.76F
$$

NEZ044-045-051>053-067-240600-
OMAHA AREA

CITY           SKY/WX    TMP DP  RH WIND       PRES   REMARKS
OMAHA EPPLEY   MOCLDY    49  38  65 S10       29.75F
BLAIR          MOCLDY    54  41  60 S13       29.73F
FREMONT        PTCLDY    58  40  51 S9G16     29.74F
MILLARD        CLOUDY    52  40  64 SE3       29.76F
OFFUTT AFB     PTCLDY    47  37  68 E6        29.76F
PLATTSMOUTH    CLOUDY    52  40  62 S15       29.76F
WAHOO          FAIR      50  40  66 S8        29.74F
$$




USA.gov is the U.S. government's official web portal to all federal, state and local government web resources and services.